sat.trackr.live / text

‹ back to catalog

STARLINK-36293

NORAD 68515 · 2026-068H

PAYLOAD ACTIVE UNKNOWN

§ Identity

Operator
Country
US
Launch date
2026-03-30
Launch site
AFETR
Launch vehicle
Mass (kg)
RCS (m²)

Purposes: comms

External: N2YO · Heavens-Above · Gunter

§ Orbital elements

Epoch: 2026-09-19T20:09:52.352064Z

Period
93.85 min
Inclination
53.1611°
Eccentricity
0.0000726
Mean motion
15.34409713 rev/d
Perigee alt
462.2 km
Apogee alt
463.2 km
Semi-major
6,840.8 km
B*
2.8961e-4
RAAN
302.9604°
Arg perigee
79.3486°
Mean anomaly
280.7598°
Rev number
2,673

§ Raw data

STARLINK-362931 68515U 26068H   26262.84018926  .00009424  00000+0  28961-3 0  99902 68515  53.1611 302.9604 0000726  79.3486 280.7598 15.34409713 26734

JSON: /api/v1/satellites/68515 · /tle

For live sub-satellite position, see the globe view (requires WebGL).

§ Visibility from observer

Set your observer location to see the next 7 days of passes ≥ 10°. The values pass through the URL so the page stays shareable.

No JS? Fill the form by hand. The geolocation button needs JavaScript.